Sharm El Sheikh, Egypt

10:56 AM EET on March 26, 2017 (GMT +0200)
Sharm El Sheikh International

Weather History for HESH - November, 2012

Change the Weather History Date:

Sunday, November 18, 2012

  Actual Average Record
Temperature  
Mean Temperature 79 °F -  
Max Temperature 89 °F - - ()
Min Temperature 69 °F - - ()
Cooling Degree Days 14    
Growing Degree Days 29 (Base 50)    
Moisture  
Dew Point 58 °F    
Average Humidity 54    
Maximum Humidity 83    
Minimum Humidity 20    
Precipitation  
Precipitation 0.00 in - - ()
Sea Level Pressure  
Sea Level Pressure 29.88 in    
Wind  
Wind Speed 5 mph ()    
Max Wind Speed 18 mph    
Max Gust Speed -    
Visibility 6.2 miles    
Events      
T = Trace of Precipitation, MM = Missing Value Source: Averaged Metar Reports

Daily Weather History Graph

Daily Weather History Graph

Search for Another Location

Airport or City:

Trip Planner

Search our weather history database for the weather conditions in past years. The results will help you decide how hot, cold, wet, or windy it might be!

Date:

Astronomy

Nov. 18, 2012 Rise Set
Actual Time 6:06 AM EET 4:48 PM EET
Civil Twilight 5:41 AM EET 5:13 PM EET
Nautical Twilight 5:13 AM EET 5:42 PM EET
Astronomical Twilight 4:45 AM EET 6:10 PM EET
Moon 10:22 AM EET (11/18) 9:39 PM EET (11/18)
Length of Visible Light 11h 32m
Length of Day
10h 42m
Waxing Crescent, 27% of the Moon is Illuminated
Nov 18
Waxing Crescent
Nov 20
First Quarter
Nov 28
Full
Dec 6
Last Quarter
Dec 13
New

Hourly Weather History & Observations

Time (EET) Temp. Heat Index Dew Point Humidity Pressure Visibility Wind Dir Wind Speed Gust Speed Precip Events Conditions
12:00 AM 71.6 °F - 64.4 °F 78% 29.89 in - WNW 2.3 mph - N/A   Clear
1:00 AM 71.6 °F - 64.4 °F 78% 29.89 in - WNW 4.6 mph - N/A   Clear
2:00 AM 69.8 °F - 64.4 °F 83% 29.86 in - NNW 3.5 mph - N/A   Clear
3:00 AM 69.8 °F - 62.6 °F 78% 29.86 in - NNW 4.6 mph - N/A   Clear
5:00 AM 69.8 °F - 60.8 °F 73% 29.86 in - NNW 4.6 mph - N/A   Clear
6:00 AM 69.8 °F - 62.6 °F 78% 29.89 in 6.2 mi NNW 1.2 mph - N/A   Scattered Clouds
7:00 AM 73.4 °F - 66.2 °F 78% 29.89 in 6.2 mi SSE 4.6 mph - N/A   Scattered Clouds
8:00 AM 77.0 °F - 62.6 °F 61% 29.92 in 6.2 mi Variable 2.3 mph - N/A   Partly Cloudy
9:00 AM 84.2 °F 84.4 °F 60.8 °F 45% 29.92 in 6.2 mi Calm Calm - N/A   Partly Cloudy
10:00 AM 86.0 °F 86.1 °F 60.8 °F 43% 29.92 in 6.2 mi Variable 3.5 mph - N/A   Partly Cloudy
11:00 AM 87.8 °F 87.1 °F 59.0 °F 38% 29.89 in 6.2 mi South 6.9 mph - N/A   Partly Cloudy
12:00 PM 86.0 °F 86.6 °F 62.6 °F 45% 29.86 in 6.2 mi SSE 11.5 mph - N/A   Partly Cloudy
1:00 PM 87.8 °F 87.1 °F 59.0 °F 38% 29.83 in 6.2 mi SSE 18.4 mph - N/A   Partly Cloudy
2:00 PM 89.6 °F - 42.8 °F 20% 29.80 in 6.2 mi WSW 9.2 mph - N/A   Partly Cloudy
3:00 PM 89.6 °F 88.1 °F 57.2 °F 33% 29.80 in 6.2 mi WSW 5.8 mph - N/A   Scattered Clouds
4:00 PM 82.4 °F 81.7 °F 55.4 °F 39% 29.83 in - North 12.7 mph - N/A   Clear
5:00 PM 77.0 °F - 55.4 °F 47% 29.86 in 6.2 mi NNE 10.4 mph - N/A   Partly Cloudy
6:00 PM 75.2 °F - 53.6 °F 47% 29.89 in 6.2 mi North 11.5 mph - N/A   Partly Cloudy
7:00 PM 73.4 °F - 51.8 °F 47% 29.89 in - North 5.8 mph - N/A   Clear
8:00 PM 73.4 °F - 53.6 °F 50% 29.89 in - North 9.2 mph - N/A   Clear
9:00 PM 73.4 °F - 51.8 °F 47% 29.89 in - North 6.9 mph - N/A   Clear
10:00 PM 71.6 °F - 51.8 °F 50% 29.92 in - North 4.6 mph - N/A   Clear
11:00 PM 69.8 °F - 51.8 °F 53% 29.92 in - NNW 6.9 mph - N/A   Clear